WILDBLUE-1

Last updated on Thu Mar 05 2026 00:02:55 GMT+0000 (Coordinated Universal Time)

1 29643U 06054A 26063.24350284 -.00000060 00000+0 00000+0 0 9999 2 29643 2.5323 81.8355 0001690 266.6994 149.9147 1.00272900 52743
UTC large
Height (km)
Speed (km/s)
/
Latitude / Longitude
Inclination (degrees)
Orbital Period (minutes)
Azimuth
Elevation
Range (km)
Doppler Factor

Next 0 passes for location: London (51.5072 / 0.1276)

Sorry there are no passes over London.